www.pogodaiklimat.ru

Погода и климат >> Архив погоды >> Иран >> Iranshahr


ПОГОДА в Iranshahr

  • Прогноз погоды в Iranshahr
  • Монитор погоды в Iranshahr
  • Климат города

АРХИВ ПОГОДЫ в Iranshahr

Время (UTC), дата Ветер
(напр.,м/с)
 
Видим.   Явления Облачность Т
(С)
Тd
(С)
f
(%)
Тe
(С)
Тes
(С)
Комфортность P
(гПа)
Po
(гПа)
Тmin
(С)
Tmax
(С)
R
(мм)
R24
(мм)
S
(см)
03 8.12 СВ 2 10 км 1/1 1200 м
[Sc]
+13.5 0.0 40 +13 +13 1015.7 948.2 +13.2
06 8.12 штиль 0 20 км 1/1 1200 м
[Cu hum]
+21.1 +0.9 26 +23 +31 комфорт 1016.8 949.9
09 8.12 З 6 12 км 1/1 1200 м
[Cu hum]
+25.0 +3.8 25 +24 +27 комфорт 1014.0 947.4
12 8.12 З 6 15 км 1/1 1200 м
[Cu hum]
+25.0 +5.9 29 +25 +25 комфорт 1013.0 946.4
15 8.12 штиль 0 12 км ясно +21.7 +8.2 42 +23 +23 комфорт 1013.9 946.7 +25.6
18 8.12 штиль 0 8000 м мгла ясно +18.2 +5.4 43 +18 +18 1014.1 947.3
21 8.12 СВ 3 5000 м мгла ясно +15.3 +3.4 45 +15 +15 1013.3 946.6
00 9.12 Ю 3 10 км 1/0
[Ci sp]
+14.5 +3.1 46 +14 +14 1013.5 946.7
03 9.12 штиль 0 10 км ясно +11.8 +2.4 52 +12 +12 1015.9 948.3 +11.7
06 9.12 штиль 0 10 км ясно +19.3 +8.2 49 +20 +28 1016.7 949.6
09 9.12 ЮЗ 3 10 км ясно +22.1 +7.8 40 +23 +30 комфорт 1013.9 946.9
12 9.12 ЮЗ 4 10 км ясно +23.4 +5.3 31 +24 +24 комфорт 1012.3 945.4
15 9.12 ЮЗ 2 10 км ясно +20.0 +1.8 30 +21 +21 комфорт 1014.2 946.5 +24.1
18 9.12 ЮВ 2 10 км ясно +15.1 +0.6 37 +15 +15 1014.7 947.2
21 9.12 СВ 3 10 км ясно +12.3 -0.9 40 +11 +11 1014.4 946.9
00 10.12 СВ 3 10 км ясно +10.7 -2.5 40 +9 +9 1014.5 947.0
03 10.12 С 3 15 км 1/1 1200 м
[Sc]
+9.6 -5.2 35 +8 +8 1016.3 948.1 +9.6
06 10.12 ЮВ 2 20 км 1/0
[Ci sp]
+17.9 -1.8 26 +18 +25 1017.5 949.7
09 10.12 З 2 20 км 1/0
[Ac trans Ci sp]
+23.0 -2.2 19 +22 +29 комфорт 1014.2 946.8
12 10.12 ЮЗ 3 20 км 3/0
[Ci sp]
+23.9 -4.1 15 +22 +23 комфорт 1012.9 945.5
15 10.12 З 2 12 км 1/0
[Ac trans Ci sp]
+19.4 -4.5 19 +20 +20 1014.7 946.6 +24.8
18 10.12 В 2 10 км ясно +14.8 -5.8 24 +15 +15 1015.6 947.8
21 10.12 С 2 10 км ясно +12.5 -6.6 26 +12 +12 1014.7 946.8
00 11.12 С 3 10 км ясно +11.5 -7.3 26 +10 +10 1014.2 946.8
03 11.12 С 2 20 км 1/0
[Cc]
+10.7 -7.1 28 +10 +10 1016.2 948.1 +10.4
06 11.12 СВ 2 20 км 3/0
[Ac trans Cc]
+20.8 -4.4 18 +21 +27 комфорт 1016.7 949.2
09 11.12 З 2 20 км 1/0
[Ac trans]
+24.1 -3.6 16 +22 +30 комфорт 1014.5 947.2
12 11.12 З 5 20 км 1/1 1000 м
[Cu hum]
+24.1 -3.1 16 +22 +23 комфорт 1013.7 946.4
15 11.12 З 2 12 км ясно +20.0 -4.0 19 +20 +20 1016.2 948.2 +24.8
18 11.12 штиль 0 10 км ясно +14.9 -4.7 25 +15 +15 1016.8 949.3
21 11.12 С 3 10 км ясно +12.2 -5.4 29 +11 +11 1017.0 949.6
00 12.12 СВ 2 10 км ясно +10.4 -5.9 31 +10 +10 1017.8 950.1
03 12.12 штиль 0 15 км ясно +10.1 -6.0 32 +10 +10 1020.4 952.0 +9.6
06 12.12 В 3 20 км ясно +19.7 -3.0 21 +20 +25 1021.3 953.4
09 12.12 штиль 0 20 км ясно +24.2 -2.5 17 +23 +34 комфорт 1018.3 950.8
12 12.12 ЮЗ 3 20 км ясно +24.9 -4.4 14 +23 +24 комфорт 1017.6 950.0
15 12.12 СЗ 2 12 км ясно +19.6 -6.1 17 +20 +20 1019.7 951.3 +25.8
18 12.12 штиль 0 12 км ясно +14.9 -8.2 19 +15 +15 1019.9 952.0
21 12.12 С 3 12 км ясно +12.6 -8.0 23 +12 +12 1019.4 951.8
00 13.12 СВ 3 12 км ясно +10.8 -8.5 25 +10 +10 1019.6 951.9
03 13.12 С 3 15 км ясно +8.5 -8.4 29 +7 +7 1022.0 953.2 +8.5
06 13.12 В 4 20 км ясно +20.1 -6.4 16 +20 +24 1022.8 954.8
09 13.12 СЗ 2 20 км ясно +24.7 -4.6 14 +23 +31 комфорт 1019.6 952.1
12 13.12 З 2 20 км ясно +26.4 -4.3 13 +24 +25 комфорт 1018.4 950.9
15 13.12 штиль 0 15 км ясно +19.9 -4.4 19 +19 +19 1020.6 952.0 +26.6
18 13.12 штиль 0 12 км ясно +15.9 -7.3 20 +16 +16 1020.6 952.8
21 13.12 С 2 12 км ясно +13.4 -7.7 22 +13 +13 1020.1 952.7
00 14.12 С 3 12 км ясно +12.0 -6.4 27 +11 +11 1020.3 952.8
03 14.12 С 4 15 км ясно +11.7 -3.5 34 +10 +10 1022.4 954.1 +11.7
06 14.12 В 2 20 км ясно +19.6 -0.5 26 +20 +26 1023.6 955.6
09 14.12 СВ 2 20 км ясно +23.8 +0.3 21 +23 +31 комфорт 1020.4 952.9
12 14.12 З 4 20 км ясно +24.2 +0.8 21 +23 +24 комфорт 1019.5 951.9
15 14.12 СЗ 2 12 км ясно +20.0 -2.4 22 +21 +21 комфорт 1021.5 953.2 +24.7
18 14.12 штиль 0 12 км ясно +15.7 -2.7 28 +16 +16 1021.8 953.9
21 14.12 С 3 12 км ясно +12.7 -5.4 28 +12 +12 953.2
00 15.12 С 3 12 км ясно +12.1 -5.2 29 +11 +11 1020.7 953.0

 

Местоположение метеостанции Iranshahr (Иран): широта 27.20 долгота 60.70 высота над уровнем моря 591 м.

В архиве по умолчанию представлена погода в Iranshahr за последнюю неделю. Архивные данные за месяц целиком и за предыдущие месяцы, начиная с января 2011 года, Вы можете получить, выбрав интересующий диапазон дат из раскрывающегося списка и нажав кнопку "Ввод!".


*Определитесь, кто Вы:
робот инопланетянин человек

Внимание! Время в таблицах - всемирное. Для получения местного времени необходимо прибавить поправку, которая в Iranshahr равна 3.5 ч.

Смотрите также архив погоды в соседних городах и на ближайших метеорологических станциях:

Погода в Saravan (Иран) (162 км)
Погода в Chah Bahar Airport (Иран) (214 км)
Погода в Zahedan (Иран) (253 км)
Погода в Jiwani (Пакистан) (261 км)
Погода в Nokkundi (Пакистан) (270 км)
Погода в Gawadar (Пакистан) (282 км)
Погода в Kahnuj (Иран) (308 км)
Погода в Bam (Иран) (309 км)
Погода в Panjgur (Пакистан) (338 км)
Погода в Jask (Иран) (340 км)

Пояснения к столбцам:

Ветер - указаны скорость ветра в м/с - средняя за 10 мин, порывы в срок и между сроками (в фигурных скобках) и направление, откуда дует ветер: С - северный, СВ - северо-восточный, В - восточный, ЮВ - юго-восточный, Ю - южный, ЮЗ - юго-западный, З - западный, СЗ - северо-западный.
Видимость - горизонтальная дальность видимости в метрах или километрах. При видимости от 1 до 10 км при отсутствии осадков обычно наблюдается дымка, при ухудшении видимости до 1 км и менее - туман. В сухую погоду видимость может ухудшаться дымом, пылью или мглою.
Явления - указаны атмосферные явления, наблюдавшиеся в срок или в последний час перед сроком; фигурными скобками обозначены явления, наблюдавшиеся между сроками (за 1-3 часа до срока); квадратными скобками обозначены град или гололедные отложения с указанием их диаметра в мм.
Облачность - указаны через наклонную черту общая и нижняя облачность в баллах и высота нижней границы облаков в метрах; квадратными скобками обозначены формы облаков: Ci - перистые, Cs - перисто-слоистые, Cc - перисто-кучевые, Ac - высококучевые, As - высокослоистые, Sc - слоисто-кучевые, Ns - слоисто-дождевые, Cu - кучевые, Cb - кучево-дождевые. Подробнее классификацию облаков см. в Атласе облаков (PDF).
T - Температура воздуха - температура, измеренная на высоте 2 м над землей.
Td - Температура точки росы - температура, при понижении до которой содержащийся в воздухе водяной пар достигнет насыщения.
f - Относительная влажность воздуха - влажноcть воздуха, измеренная на высоте 2 м над землей.
Te - Эффективная температура - температура, которую ощущает одетый по сезону человек в тени. Характеристика душности погоды. При расчете учитывается влияние влажности воздуха и скорости ветра на теплоощущения человека.
Tes - Эффективная температура на солнце - температура, которую ощущает человек, с поправкой на солнечный нагрев. Характеристика знойности погоды. Зависит от высоты солнца над горизонтом, облачности и скорости ветра. Ночью, в пасмурную погоду, а также при ветре 12 м/с и более поправка равна нулю.
P - Атмосферное давление - приведенное к уровню моря атмосферное давление.
Po - Атмосферное давление - измеренное на уровне метеостанции атмосферное давление.
Tmin - Минимальная температура - минимум температуры воздуха на высоте 2 м над землей.
Tmax - Максимальная температура - максимум температуры воздуха на высоте 2 м над землей.
R - Количество осадков - Количество выпавших осадков за период времени, мм. При наведении курсора мыши на число - период времени, за который выпало указанное количество осадков.
R24 - Количество осадков - Количество выпавших осадков за 24 часа, мм.
S - Снежный покров - Высота снежного покрова, см. При наведении курсора мыши на число - состояние снежного покрова и степень покрытия местности в баллах.